Location: Downe
(51.3167°N, 0.0500°E)
Time: 02:10:20
(UTC+00:00)

Cosmos 2228 Rocket - Pass Details

Date: 17 November 2019
Orbit: 619 x 651 km, 82.5° (Epoch: 14 December)

Event Time Altitude Azimuth Distance (km) Brightness Sun altitude
Rises 05:37:18 0° 350° (N) 2,981 6.4 -15.8°
Reaches altitude 10° 05:39:34 10° 353° (N) 2,068 5.6 -15.4°
Maximum altitude 05:44:10 71° 78° (ENE) 692 3.4 -14.7°
Drops below altitude 10° 05:48:44 10° 163° (SSE) 2,055 6.1 -14.0°
Sets 05:50:59 0° 165° (SSE) 2,960 6.9 -13.7°
